This is the latest recevied weather packets stored in our database for station/object W3TMB. If no packets are shown the sender has not sent any weather packets the latest 10 day(s).
| Time | Temp. | Humidity | Pressure | Rain* | Wind** | Luminosity | Snow |
|---|---|---|---|---|---|---|---|
| 1777547715 | 8.89° C | 99% | 1006.6 hPa | 0 mm | - | 91 W/m² | - |
| 1777547411 | 9.44° C | 99% | 1006.6 hPa | 0 mm | - | 90 W/m² | - |
| 1777547109 | 8.89° C | 99% | 1006.5 hPa | 0 mm | - | 77 W/m² | - |
| 1777546806 | 8.89° C | 99% | 1006.8 hPa | 0 mm | - | 60 W/m² | - |
| 1777546503 | 8.89° C | 99% | 1006.8 hPa | 0 mm | - | 32 W/m² | - |
| 1777546200 | 8.89° C | 99% | 1006.7 hPa | 0 mm | - | 22 W/m² | - |
| 1777545896 | 8.89° C | 99% | 1006.6 hPa | 0 mm | - | 12 W/m² | - |
| 1777545594 | 8.89° C | 99% | 1006.7 hPa | 0 mm | - | 10 W/m² | - |
| 1777545290 | 8.89° C | 99% | 1006.5 hPa | 0 mm | - | 6 W/m² | - |
| 1777544988 | 8.89° C | 99% | 1006.6 hPa | 0 mm | - | 4 W/m² | - |
| 1777544684 | 8.89° C | 99% | 1006.1 hPa | 0 mm | - | 5 W/m² | - |
| 1777544379 | 8.89° C | 99% | 1006.1 hPa | 0 mm | - | 2 W/m² | - |
| 1777544077 | 8.89° C | 99% | 1006.2 hPa | 0 mm | - | 1 W/m² | - |
| 1777543774 | 8.89° C | 99% | 1006.3 hPa | 0 mm | - | 0 W/m² | - |
| 1777543470 | 8.89° C | 99% | 1006.3 hPa | 0 mm | - | 0 W/m² | - |
| 1777543166 | 8.89° C | 99% | 1006.3 hPa | 0 mm | - | 0 W/m² | - |
| 1777542862 | 8.89° C | 99% | 1006.2 hPa | 0 mm | - | 0 W/m² | - |
| 1777542559 | 8.89° C | 99% | 1006 hPa | 0 mm | - | 0 W/m² | - |
| 1777542255 | 8.89° C | 99% | 1006.3 hPa | 0 mm | - | 0 W/m² | - |
| 1777541953 | 8.89° C | 99% | 1006.1 hPa | 0 mm | - | 0 W/m² | - |
| 1777541650 | 8.89° C | 99% | 1006.1 hPa | 0 mm | - | 0 W/m² | - |
| 1777541346 | 9.44° C | 99% | 1006 hPa | 0 mm | - | 0 W/m² | - |
| 1777541041 | 9.44° C | 99% | 1006.1 hPa | 0 mm | - | 0 W/m² | - |
| 1777540739 | 8.89° C | 99% | 1006 hPa | 0 mm | - | 0 W/m² | - |
| 1777540437 | 9.44° C | 99% | 1005.7 hPa | 0 mm | - | 0 W/m² | - |
* Rain latest hour (hover to see other rain measurements)
** Current wind speed in m/s (hover to see current wind gust speed)